This demonstration page uses our WeatherBlox Daily Observations layout. Learn more.

36.17497, -115.13722

Hourly Observations for June 26, 2018

Temp ( °F °C ) Dew Point ( °F °C ) Humidity (%) Winds ( mph kmh ) Pressure ( in mb ) Visibility ( mi km ) Precip ( " mm )
2:53 am 02:53 Clear 85 29.4 36 2.2 17 17 NNW 6 9 29.77 1008 10 16.09344 0 0
3:53 am 03:53 Clear 83 28.3 36 2.2 19 19 N 7 11 29.77 1008 10 16.09344 0 0
4:53 am 04:53 Clear 81 27.2 36 2.2 20 20 N 7 11 29.8 1009 10 16.09344 0 0
5:53 am 05:53 Sunny 81 27.2 34 1.1 18 18 N 8 13 29.83 1010 10 16.09344 0 0
6:53 am 06:53 Sunny 84 28.9 34 1.1 17 17 N 6 9 29.83 1010 10 16.09344 0 0
7:53 am 07:53 Sunny 89 31.7 31 -0.6 12 12 ENE 5 7 29.85 1011 10 16.09344 0 0
8:53 am 08:53 Sunny 91 32.8 30 -1.1 11 11 SE 9 15 29.85 1011 10 16.09344 0 0
9:53 am 09:53 Sunny 94 34.4 33 0.6 12 12 ESE 5 7 29.85 1011 10 16.09344 0 0
10:53 am 10:53 Sunny 98 36.7 32 0 10 10 SE 7 11 29.85 1011 10 16.09344 0 0
11:53 am 11:53 Sunny 101 38.3 27 -2.8 7 7 SSE 7 11 29.83 1010 10 16.09344 0 0
12:53 pm 12:53 Sunny 103 39.4 22 -5.6 5 5 SE 9 15 29.83 1010 10 16.09344 0 0
1:53 pm 13:53 Sunny 105 40.6 23 -5 5 5 N 6 9 29.8 1009 10 16.09344 0 0
2:53 pm 14:53 Sunny 107 41.7 21 -6.1 5 5 SSE 9 15 29.77 1008 10 16.09344 0 0
3:53 pm 15:53 Sunny 108 42.2 20 -6.7 4 4 S 20 31 29.74 1007 10 16.09344 0 0
4:53 pm 16:53 Sunny 107 41.7 17 -8.3 4 4 SSE 20 31 29.74 1007 10 16.09344 0 0
5:53 pm 17:53 Sunny 107 41.7 14 -10 3 3 S 16 26 29.71 1006 10 16.09344 0 0
6:53 pm 18:53 Sunny 105 40.6 13 -10.6 3 3 SSE 15 24 29.71 1006 10 16.09344 0 0
7:53 pm 19:53 Sunny 103 39.4 15 -9.4 4 4 SSE 14 22 29.71 1006 10 16.09344 0 0
8:53 pm 20:53 Clear 100 37.8 21 -6.1 6 6 S 13 20 29.74 1007 10 16.09344 0 0
9:53 pm 21:53 Clear 99 37.2 22 -5.6 6 6 SSW 8 13 29.74 1007 10 16.09344 0 0
10:53 pm 22:53 Clear 95 35 24 -4.4 8 8 S 8 13 29.74 1007 10 16.09344 0 0
11:53 pm 23:53 Clear 91 32.8 25 -3.9 9 9 Calm 29.77 1008 10 16.09344 0 0

Powered by AerisWeather